MSG 4 DEB (COOLER COVER), 40989

Orbit data source: Space-Track

MSG 4 DEB (COOLER COVER), 40989 is space debris in GEO originally from a launch on Wed, 15 Jul 2015 UTC launched from the French Guiana (FRGUI). Debris objects in space refer to the collection of defunct objects orbiting the Earth. Examples of debris include non-operational satellites, rocket bodies, and fragments generated from explosions, collisions, or faulty payload assembly.

Loading next visibility...
Identifier
40989, 2015-034E
Orbit
GEO
Last TLE update
23 hours ago
Origin
Manufacturer
SENER
Mission
Spacecraft
Bus & Motor
MSG COVER, Unknown motor
Mass
~0 kg wet, ~4 kg dry
Launch date (UTC)
2015-07-15 (10 years ago)
Launch vehicle
Unknown
Launch site
French Guiana (FRGUI)
Object type
Payload
Rocket body
Debris
Shape & HBR
Cyl, 1.55 m
Radar Cross Section
1.065 m²

Expand to show TLE details & history

TLE from 23 hours ago
0 MSG 4 DEB (COOLER COVER)
1 40989U 15034E   25186.39572505 -.00000233  00000-0  00000-0 0  9990
2 40989   6.2305  84.6500 0031518 292.7426 325.2381  1.01540486 36812
Epoch: 2025-07-05T09:29Z
TLE epoch observation values (Epoch: 2025-07-05T09:29:50.644Z)
Latitude
-6.10946°
Longitude
-83.73172°
Altitude
35,327.559 km
Speed
3.096 km/s
True Right ascension
22h 49m 27s
True Declination
-6° 06' 12"
Sunlit
Object was in daylight at epoch
Visualization orbit readout
Latitude
-5.53625°
Longitude
-99.39465°
Altitude
35,351.654 km
Speed
3.094 km/s
Apparent Right ascension
21h 59m 50s
Apparent Declination
-12° 16' 51"
Sunlit
Object is in daylight
Visualization observer readout
Local Sidereal Time
20:04:36
Azimuth
146.545° SSE
Elevation
31.346°
Doppler factor
1
Orbital elements
Apogee altitude
35,567.49 km
Perigee altitude
35,303.912 km
Semi-major axis
41,813.838 km
Eccentricity
0.00315
Inclination
6.2305°
RAAN
84.65°
Arg. of periapsis
292.7426°
True anomaly
Unknown
Mean anomaly
325.2381°
Eccentric anomaly
Unknown
Mean motion
0.25384 °/min
Orbital period
1,418.21 mins
BSTAR
0
Loading historical data...
40989 neighbors
Loading maneuver chart data...
Loading SW <> Apogee altitude chart data...
Loading historical data...
Loading historical data...
Loading historical data...
Loading historical data...
Loading historical data...
Loading historical data...
Loading historical data...

MSG 4 DEB (COOLER COVER) Visibility forecast

Observer location: undefined°, undefined°

Span
Click to sort rows by Start time (UTC) header in descending order
Start Az.
Max El. time (UTC)
Max El. Az.
Max El.
End time (UTC)
End Az.
1440 mins2025-07-06 08:06:49.804Z146.555° SSE2025-07-06 21:27:49.804Z134.984° SE33.296°2025-07-07 08:06:49.804Z141.533° SSE
|